Location: Gradaro
(45.0833°N, 10.8833°E)
Time: 10:27:25
(UTC+00:00)

Cosmos 1295 Rocket - Pass Details

Date: 29 November 2020
Orbit: 945 x 993 km, 82.9° (Epoch: 23 January)

Event Time Altitude Azimuth Distance (km) Brightness Sun altitude
Rises 05:39:37 0° 198° (SSW) 3,604 7.5 -9.3°
Reaches altitude 10° 05:42:08 10° 203° (SSW) 2,660 6.8 -8.8°
Maximum altitude 05:48:07 58° 282° (WNW) 1,091 4.5 -7.9°
Drops below altitude 10° 05:54:08 10° 1° (N) 2,678 6.6 -6.9°
Sets 05:56:42 0° 6° (N) 3,630 7.3 -6.5°
